Regional Weather Roundup
Issued by NWS Upton, NY

Current Version | Previous Version | Graphics & Text | Print | Product List | Glossary Off
Versions: 1 2 3 4 5 6 7 8 9 10 11 12 13 14 15 16 17 18 19 20 21 22 23 24 25 26 27 28 29 30 31 32 33 34 35 36 37 38 39 40 41 42 43 44 45 46 47 48 49 50

000
ASUS41 KOKX 220305
RWROKX
REGIONAL WEATHER ROUNDUP
NATIONAL WEATHER SERVICE NEW YORK NY
1100 PM EDT SUN SEP 21 2014

NOTE: "FAIR" INDICATES FEW OR NO CLOUDS BELOW 12,000 FEET WITH NO
SIGNIFICANT WEATHER AND/OR OBSTRUCTIONS TO VISIBILITY.

NYZ071-072-176-178-NJZ106-104-220400-
NEW YORK CITY METRO AREA


CITY           SKY/WX    TMP DP  RH WIND       PRES   REMARKS
CENTRAL PARK   PTCLDY    71  67  87 VRB3      29.65S
LAGUARDIA APRT MOCLDY    72  67  84 SW9       29.62S
KENNEDY INTL   MOCLDY    70  67  90 SW8       29.64S
NEWARK/LIBERTY PTCLDY    72  68  87 SW9       29.62F
BRNX BOT. GARD   N/A     72  66  83 S3        29.65S
TETERBORO      PTCLDY    71  66  84 SW6       29.61F
$$

NYZ177-179-078>081-220400-
LONG ISLAND NEW YORK

CITY           SKY/WX    TMP DP  RH WIND       PRES   REMARKS
FARMINGDALE    PTCLDY    70  67  90 SW5       29.64R
ISLIP          PTCLDY    67  66  97 W5        29.61S
SHIRLEY        FOG       68  67  96 SW6       29.63R VSB 1
WESTHAMPTON    FOG       67  66  97 W5        29.63S VSB 1/4
MONTAUK POINT    N/A     70  68  93 SW3       29.62R
$$

NYZ052-065-067-220400-
HUDSON VALLEY

CITY           SKY/WX    TMP DP  RH WIND       PRES   REMARKS
WHITE PLAINS   CLEAR     68  65  90 CALM      29.62F
NEWBURGH       MOCLDY    68  66  94 W16       29.65
MONTGOMERY     CLOUDY    68  59  73 W9        29.64R
POUGHKEEPSIE   LGT RAIN  68  65  90 VRB7      29.61R
ALBANY         CLOUDY    62  55  77 CALM      29.62S
$$

NJZ001-105-106-008-010-013-015-019>022-104-220400-
NEW JERSEY

CITY           SKY/WX    TMP DP  RH WIND       PRES   REMARKS
NEWARK/LIBERTY PTCLDY    72  68  87 SW9       29.62F
TETERBORO      PTCLDY    71  66  84 SW6       29.61F
CALDWELL       PTCLDY    68  65  90 SW3       29.63F
MORRISTOWN     PTCLDY    66  63  88 CALM      29.63F FOG
SOMERVILLE     MOCLDY    65  63  93 CALM      29.63S FOG
LINDEN         FAIR      75  71  87 W5        29.65S
SUSSEX         LGT RAIN  71  59  65 NW8G16    29.66R
ANDOVER          N/A     69  62  78 CALM      29.66R
TRENTON        CLOUDY    70  64  81 W6        29.66R
MILLVILLE      PTCLDY    71  65  81 CALM      29.66F
ATLANTIC CITY  CLEAR     69  66  90 SW8       29.67S
WRIGHTSTOWN    PTCLDY    67  67  99 SW5       29.63F
TOMS RIVER     CLEAR     68  66  94 SW5       29.66S
BELMAR         PTCLDY    68  64  88 SW6       29.65F
$$

PAZ047>061-062-071-220400-
EASTERN PENNSYLVANIA

CITY           SKY/WX    TMP DP  RH WIND       PRES   REMARKS
PHILADELPHIA   MOCLDY    73  63  70 W6        29.69R
ALLENTOWN      CLOUDY    67  63  87 SW7       29.65S
SCRANTON       CLOUDY    63  60  90 CALM      29.69R
$$

CTZ002-004>006-009-010-012-RIZ004-006-007-MAZ004-011-015-220400-
SOUTHERN NEW ENGLAND
 IN CT

CITY           SKY/WX    TMP DP  RH WIND       PRES   REMARKS
BRADLEY INTL   CLOUDY    69  67  93 S3        29.58F FOG
HARTFORD       PTCLDY    68  67  96 S5        29.59S
DANBURY        FOG       62  61  96 CALM      29.63S VSB 1/4
WTRBRY/OXFORD  CLOUDY    64  63  94 CALM      29.64S VSB 1/2
BRIDGEPORT     CLEAR     70  68  93 SW5       29.61S
MERIDEN        FOG       64  63  96 CALM      29.61S VSB 1/4
NEW HAVEN      FOG       71  69  93 CALM      29.61S VSB 1/4
CHESTER        FOG       66  66 100 SW3       29.62S VSB 1/2
GROTON         CLOUDY    66  66 100 CALM      29.60S
WILLIMANTIC    FOG       68  67  96 MISG      29.60S VSB 1/2

 IN RI

CITY           SKY/WX    TMP DP  RH WIND       PRES   REMARKS
PROVIDENCE     FOG       68  68 100 SW5       29.59S VSB 1/4
BLOCK ISLAND   MOCLDY    66  64  94 W6        29.61R
WESTERLY       PTCLDY    65  64  97 CALM      29.60S

 IN MA

CITY           SKY/WX    TMP DP  RH WIND       PRES   REMARKS
BOSTON         CLOUDY    70  68  93 W6        29.56F
WORCESTER      PTCLDY    65  65 100 W7        29.61F FOG
WESTFIELD      FOG       69  67  93 S6        29.58F VSB 1/4
PROVINCETOWN   CLOUDY    66  64  94 CALM      29.55F
NANTUCKET      CLOUDY    67  66  97 NW7       29.56R
$$

ANZ330-335-338-340-345-350-353-355-220400-
COASTAL MARINE OBSERVATIONS


STATION/POSITION TIME  SKY/WX   TEMP    WIND        PRES    VSBY  WAVE
                                AIR SEA DIR/SP/G                  HT/PER
                 (UTC)          (F)     (DEG/KT/KT) (MB)    (MI)  (FT/S)
NY HARB ENTRANCE 0300            71 71  220/ 10/ 12 1004.0          3/ 8
4S FIRE IS       0300               70                N/A           4/ 7
20S FIRE ISLAND  0300            69 69  240/ 12/ 12 1004.3          4/ 8
23SW MTP         0300                                 N/A           4/ 7
HUDSON CANYON    0300            69 70  280/ 12/ 14 1003.8          5/ 8
EXECUTION ROCKS  0300            71 70  190/  8/ 10   N/A
WESTERN LI SOUND 0300            71     220/ 10/ 12   N/A           0
CENTRAL LI SOUND 0200            69 71  240/  6/ 10   N/A           0
EASTERN LI SOUND 0200            68 68   CALM  /  2   N/A
ROBBINS REEF     0300            72     240/ 10/ 13 1002.1
$$


>>>>>>>>>>>>>>>>>>>>>>>>>>>> KEY <<<<<<<<<<<<<<<<<<<<<<<<<<<
>                                                          <
>     SKY/WX - SKY CONDITION/PRESENT WEATHER               <
>     TMP    - TEMPERATURE IN FAHRENHEIT                   <
>     DP     - DEWPOINT IN FAHRENHEIT                      <
>     RH     - RELATIVE HUMIDITY IN PERCENT                <
>     WIND   - DIRECTION AND SPEED IN MPH                  <
>     PRES   - MEAN SEA LEVEL PRESSURE IN INCHES OF HG     <
>     WCI    - WIND CHILL INDEX                            <
>     VSB    - VISIBILITY IN MILES                         <
>     HX     - HEAT INDEX                                  <
>     TC     - TEMPERATURE IN CELSIUS                      <
>     VRB    - VARIABLE WIND DIRECTION                     <
>                                                          <
>>>>>>>>>>>>>>>>>>>>>>>>>>>> KEY <<<<<<<<<<<<<<<<<<<<<<<<<<<




USA.gov is the U.S. government's official web portal to all federal, state and local government web resources and services.